Besuchen Sie unsere anderen Wetter Stationen:

Template documentation
and downloads

And another site



Select another period ( hide this area )

Einheiten Zeitraum Custom range Directly to
metrisch Englisch Beide
Tägliche Wöchentliche Monatliche Jährlich
use both date-selectors for a custom range
previous Tag
With this date

WeatherUnderground graphs for this period ( click here ) Loading the graph can take up to a minute!


Tägliche Zusammenfassung für Freitag 14 August 2020
Zeit Temp. ( °C ) Dew pt. ( °C ) Wind ( km/h ) von Windböen ( km/h ) Luftdruck ( hPa ) Humid.( % ) Rainrate ( cm ) Solar ( W/m2 )
Hoch21,1 19,2 19,0 SW ( 501/1099 ) 12,0 1014,6 96 1,19 380
Durchchnittswerte19,3 18,1 5,5 SW #86/200 3,4 1013,5 93 0,80 144 #117/200
Wenig18,1 16,9 -   0,0 1012,6 84 -  
Tägliche Tabular details for Freitag 14 August 2020
Zeit Temp. ( °C ) Dew pt. ( °C ) Wind ( km/h ) von Windböen ( km/h ) Luftdruck ( hPa ) Humid.( % ) Rainrate ( cm ) Solar ( W/m2 )
00:04 18,7 17,4 6,0 SW 4,0 1013,8 92 - -
00:09 18,7 17,4 7,0 SW 4,0 1013,8 92 - -
00:14 18,7 17,5 6,0 SW 4,0 1013,8 93 - -
00:19 18,6 17,4 7,0 SW 5,0 1013,9 93 - -
00:24 18,4 17,3 7,0 SW 5,0 1013,9 93 - -
00:29 18,5 17,2 7,0 SW 6,0 1013,8 92 0,20 -
00:34 18,6 17,2 7,0 SW 5,0 1013,8 92 0,20 -
00:39 18,7 17,2 8,0 SW 5,0 1013,7 91 0,20 -
00:44 18,7 17,2 8,0 SW 6,0 1013,8 91 0,20 -
00:49 18,6 17,1 8,0 SW 7,0 1013,8 91 0,20 -
00:54 18,5 17,0 8,0 SW 7,0 1013,7 91 0,20 -
00:59 18,4 16,9 8,0 SW 4,0 1013,7 91 0,20 -
01:04 18,4 17,1 6,0 SW 4,0 1013,7 92 0,20 -
01:09 18,4 17,1 7,0 SW 4,0 1013,7 92 0,20 -
01:14 18,4 17,1 7,0 SW 4,0 1013,6 92 0,20 -
01:19 18,4 17,1 6,0 SW 4,0 1013,6 92 0,20 -
01:24 18,3 17,2 6,0 SW 3,0 1013,6 93 0,20 -
01:29 18,3 17,1 6,0 SW 3,0 1013,6 93 0,20 -
01:34 18,4 17,2 7,0 SW 4,0 1013,5 93 0,20 -
01:39 18,4 17,2 4,0 SW 3,0 1013,5 93 0,20 -
01:44 18,4 17,4 4,0 SW 3,0 1013,5 94 0,20 -
01:49 18,5 17,5 6,0 SW 3,0 1013,5 94 0,20 -
01:54 18,6 17,6 5,0 SW 3,0 1013,4 94 0,20 -
01:59 18,5 17,5 6,0 SW 3,0 1013,4 94 0,41 -
02:04 18,6 17,6 6,0 SW 3,0 1013,3 94 0,41 -
02:09 18,7 17,7 7,0 SW 5,0 1013,3 94 0,41 -
02:14 18,9 17,9 12,0 SSW 5,0 1013,3 94 0,61 -
02:19 19,2 18,1 13,0 SW 7,0 1013,2 94 0,61 -
02:24 19,3 18,1 13,0 SW 8,0 1013,1 93 0,79 -
02:29 19,4 18,1 13,0 SW 9,0 1013,1 93 0,99 -
02:34 19,4 18,1 12,0 SW 7,0 1013,1 92 0,99 -
02:39 19,4 18,2 9,0 SW 6,0 1013,0 93 0,99 -
02:44 19,3 18,2 10,0 SW 6,0 1013,0 93 0,99 -
02:49 19,3 18,1 8,0 SW 6,0 1013,0 93 0,99 -
02:54 19,3 18,2 10,0 SSW 6,0 1012,9 93 1,19 -
02:59 19,3 18,2 7,0 SW 5,0 1013,0 93 1,19 -
03:04 19,3 18,2 7,0 SSW 5,0 1013,0 93 0,99 -
03:09 19,2 18,1 8,0 SSW 4,0 1013,0 94 0,99 -
03:14 19,1 18,1 7,0 SSW 4,0 1013,0 94 0,99 -
03:19 19,2 18,1 8,0 SSW 5,0 1012,9 94 0,99 -
03:24 19,3 18,1 10,0 SW 6,0 1012,9 93 0,79 -
03:29 19,3 18,2 10,0 SSW 6,0 1012,8 93 0,79 -
03:34 19,3 18,0 7,0 SW 5,0 1012,8 92 0,61 -
03:39 19,3 18,1 12,0 SW 7,0 1012,8 93 0,61 -
03:44 19,2 18,0 7,0 SW 4,0 1012,7 93 0,41 -
03:49 19,1 18,1 8,0 SW 4,0 1012,7 94 0,41 -
03:54 19,0 18,0 4,0 SW 1,0 1012,7 94 0,41 -
03:59 18,9 17,9 4,0 SW 2,0 1012,7 94 0,20 -
04:04 18,8 17,9 2,0 SW 1,0 1012,6 95 0,20 -
04:09 18,7 17,9 2,0 SW   1012,7 95 0,20 -
04:14 18,7 17,8 2,0 SW   1012,7 95 0,20 -
04:19 18,6 17,8 2,0 SW   1012,7 95 0,20 -
04:24 18,6 17,8   Windstille   1012,7 95 - -
04:29 18,6 17,8   Windstille   1012,7 95 - -
04:34 18,6 17,7 4,0 SW 1,0 1012,7 95 - -
04:39 18,6 17,8 4,0 SW 1,0 1012,7 96 - -
04:44 18,5 17,8 2,0 SW 1,0 1012,7 96 - -
04:49 18,5 17,8 4,0 SW 2,0 1012,7 96 - -
04:54 18,5 17,8 2,0 SW 2,0 1012,7 96 - -
04:59 18,5 17,8 2,0 SW 1,0 1012,6 96 - -
05:04 18,4 17,8   Windstille   1012,6 96 - -
05:09 18,4 17,7 2,0 SW 1,0 1012,6 96 - -
05:14 18,4 17,7 2,0 SW   1012,7 96 - -
05:19 18,3 17,7   Windstille   1012,7 96 - -
05:24 18,3 17,7   Windstille   1012,7 96 - -
05:29 18,3 17,7 2,0 SW 1,0 1012,8 96 - -
05:34 18,3 17,6 4,0 SW 3,0 1012,8 96 - -
05:39 18,2 17,6 4,0 SW 3,0 1012,8 96 - -
05:44 18,2 17,5 2,0 SW 1,0 1012,8 96 - -
05:49 18,1 17,4   Windstille   1012,8 96 - -
05:54 18,1 17,4   Windstille   1012,8 96 0,20 -
05:59 18,1 17,4   Windstille   1012,9 96 0,20 -
06:04 18,2 17,5   Windstille   1012,8 96 0,20 -
06:09 18,2 17,5   Windstille   1012,9 96 0,20 -
06:14 18,1 17,4   Windstille   1012,9 96 0,20 -
06:19 18,2 17,5 2,0 SW 1,0 1012,8 96 0,20 -
06:24 18,2 17,5 4,0 SW 2,0 1012,9 96 0,20 -
06:29 18,2 17,6 4,0 SW 1,0 1012,9 96 0,20 -
06:34 18,2 17,5 2,0 SW 1,0 1013,0 96 0,20 -
06:39 18,2 17,6 4,0 SW 2,0 1013,0 96 0,20 -
06:44 18,2 17,6 4,0 SW 2,0 1013,1 96 0,20 -
06:49 18,3 17,6   Windstille   1013,1 96 0,20 -
06:54 18,3 17,6   Windstille   1013,1 96 0,20 -
06:59 18,2 17,6   Windstille   1013,1 96 - 5
07:04 18,2 17,6   Windstille   1013,1 96 - 7
07:09 18,3 17,6   Windstille   1013,1 96 - 9
07:14 18,3 17,7   Windstille   1013,1 96 - 14
07:19 18,3 17,7   Windstille   1013,2 96 - 16
07:24 18,3 17,7 2,0 SW   1013,2 96 - 18
07:29 18,4 17,7   Windstille   1013,2 96 - 19
07:34 18,4 17,7 2,0 SW 1,0 1013,3 96 - 19
07:39 18,4 17,8 4,0 SW 2,0 1013,3 96 - 23
07:44 18,5 17,8 2,0 SW 1,0 1013,3 96 - 26
07:49 18,5 17,8   Windstille   1013,4 96 - 32
07:54 18,6 17,9 2,0 SW 1,0 1013,4 96 - 35
07:59 18,6 17,9 2,0 SW 1,0 1013,5 96 - 33
08:04 18,7 18,0 2,0 SW   1013,5 96 - 32
08:09 18,7 18,1   Windstille   1013,6 96 - 33
08:14 18,8 18,1   Windstille   1013,5 96 - 40
08:19 18,7 18,1   Windstille   1013,6 96 - 51
08:24 18,9 18,2   Windstille   1013,6 96 - 63
08:29 18,9 18,3   Windstille   1013,6 96 - 74
08:34 18,9 18,2   Windstille   1013,6 96 - 77
08:39 19,0 18,3   Windstille   1013,6 96 - 79
08:44 19,1 18,4   Windstille   1013,7 96 - 76
08:49 19,2 18,5   Windstille   1013,7 96 - 70
08:54 19,2 18,5   Windstille   1013,7 96 - 63
08:59 19,2 18,5 4,0 SW 2,0 1013,8 96 - 62
09:04 19,3 18,5 4,0 SW 3,0 1013,8 95 - 65
09:09 19,4 18,6 4,0 SW 2,0 1013,9 95 - 63
09:14 19,4 18,4 4,0 SW 3,0 1013,9 94 - 53
09:19 19,4 18,6 2,0 SW 1,0 1013,9 95 - 47
09:24 19,4 18,6 4,0 SW 2,0 1013,9 95 - 53
09:29 19,3 18,4 4,0 SW 2,0 1013,9 95 - 63
09:34 19,2 18,4 4,0 SW 3,0 1013,9 96 - 67
09:39 19,2 18,6 4,0 SW 2,0 1013,9 96 - 69
09:44 19,2 18,5 7,0 SO 5,0 1013,9 96 - 67
09:49 19,2 18,3 6,0 OSO 4,0 1013,8 95 - 65
09:54 19,2 18,4 4,0 OSO 3,0 1013,8 95 - 67
09:59 19,2 18,3 3,0 OSO 2,0 1013,8 95 - 67
10:04 19,2 18,4 4,0 OSO 2,0 1013,8 95 - 67
10:09 19,3 18,4 4,0 OSO 2,0 1013,7 95 - 70
10:14 19,3 18,4 4,0 OSO 2,0 1013,8 95 - 70
10:19 19,4 18,6 6,0 OSO 4,0 1013,8 95 - 76
10:24 19,4 18,6 7,0 SSO 5,0 1013,8 95 - 86
10:29 19,5 18,7 7,0 Süden 5,0 1013,8 95 - 97
10:34 19,7 18,7 7,0 Süden 5,0 1013,8 94 - 109
10:39 19,8 18,5 8,0 SSW 7,0 1013,8 93 - 120
10:44 19,8 18,3 10,0 SSW 6,0 1013,7 91 - 149
10:49 19,9 18,3 9,0 SSW 7,0 1013,7 91 - 197
10:54 20,2 18,6 7,0 SSW 4,0 1013,7 91 - 225
10:59 20,2 18,6 8,0 Süden 6,0 1013,7 90 - 248
11:04 20,2 18,7 12,0 Süden 7,0 1013,7 91 - 264
11:09 20,4 19,1 8,0 SSW 6,0 1013,7 92 - 265
11:14 20,6 19,1 8,0 SSW 7,0 1013,8 92 - 262
11:19 20,7 18,9 13,0 Süden 8,0 1013,8 90 - 267
11:24 20,8 18,9 13,0 Süden 9,0 1013,8 89 - 301
11:29 20,8 18,8 19,0 SW 12,0 1013,7 88 - 338
11:34 20,8 18,6 15,0 SSW 9,0 1013,8 87 - 346
11:39 20,8 18,6 13,0 SW 9,0 1013,8 87 - 345
11:44 20,9 18,9 13,0 SSW 6,0 1013,9 88 - 345
11:49 20,9 18,9 13,0 SSW 8,0 1014,0 88 - 338
11:54 20,9 18,4 13,0 SSW 9,0 1014,0 86 - 301
11:59 20,8 18,3 12,0 SW 7,0 1014,0 86 - 265
12:04 20,8 18,3 12,0 Süden 8,0 1014,0 86 - 253
12:09 20,8 18,3 12,0 Süden 8,0 1014,0 86 - 236
12:14 20,6 18,4 8,0 SSW 6,0 1014,0 87 - 218
12:19 20,6 18,3 8,0 Süden 5,0 1014,1 87 - 193
12:24 20,6 18,2 10,0 SW 7,0 1014,1 86 - 172
12:29 20,6 18,3 10,0 SSW 7,0 1014,1 87 - 181
12:34 20,6 18,2 8,0 SSW 5,0 1014,1 86 - 195
12:39 20,7 18,4 7,0 Süden 5,0 1014,2 87 - 216
12:44 20,7 18,2 13,0 SW 8,0 1014,2 86 - 234
12:49 20,7 18,1 10,0 Süden 5,0 1014,3 86 - 258
12:54 20,9 18,4 6,0 NNO 2,0 1014,3 86 - 274
12:59 21,1 18,7 8,0 Norden 5,0 1014,4 86 - 274
13:04 21,0 18,1 8,0 SW 6,0 1014,3 84 - 246
13:09 20,9 18,1 8,0 WSW 6,0 1014,4 84 - 216
13:14 20,8 18,2 7,0 SW 4,0 1014,5 85 - 190
13:19 20,8 18,1 8,0 Westen 5,0 1014,6 85 - 162
13:24 20,7 18,1 10,0 NNW 6,0 1014,6 85 - 141
13:29 20,7 18,2 9,0 NW 6,0 1014,5 86 - 127
13:34 20,6 18,3 8,0 WNW 5,0 1014,5 87 - 130
13:39 20,6 18,3 2,0 WNW 1,0 1014,5 87 - 146
13:44 20,4 18,4 8,0 NW 6,0 1014,4 88 - 165
13:49 20,3 18,3 7,0 NNW 5,0 1014,4 88 - 178
13:54 20,3 18,1 7,0 WNW 5,0 1014,4 88 - 178
13:59 20,2 18,3 10,0 NNW 7,0 1014,3 89 - 179
14:04 19,9 18,4 6,0 Norden 4,0 1014,3 91 0,20 188
14:09 19,9 18,4 3,0 Norden 1,0 1014,2 91 0,20 188
14:14 19,9 18,6 8,0 NNO 6,0 1014,3 92 0,20 186
14:19 19,9 18,6 7,0 NW 4,0 1014,2 92 0,41 178
14:24 19,9 18,6 7,0 NNW 3,0 1014,1 92 0,41 163
14:29 19,9 18,6 6,0 WNW 2,0 1014,1 92 0,41 160
14:34 19,9 18,6 7,0 NW 4,0 1014,1 92 0,41 155
14:39 19,9 18,6 6,0 NW 3,0 1014,0 92 0,41 142
14:44 19,9 18,7 4,0 NW 3,0 1014,0 93 0,41 142
14:49 20,0 18,8 4,0 NW 2,0 1014,0 93 0,41 137
14:54 19,9 18,6 2,0 NW 1,0 1014,0 92 0,41 128
14:59 19,9 18,6 3,0 NW 2,0 1013,9 92 0,41 120
15:04 19,9 18,4 6,0 NW 4,0 1013,9 91 0,41 123
15:09 19,9 18,4 6,0 NW 4,0 1013,9 91 0,41 134
15:14 19,9 18,4 4,0 NW 2,0 1013,9 91 0,41 135
15:19 20,1 18,7 4,0 NW 3,0 1013,8 92 0,20 135
15:24 20,1 18,7 6,0 NW 3,0 1013,8 92 0,20 128
15:29 20,1 18,4 6,0 NW 2,0 1013,8 90 0,20 125
15:34 20,0 18,1 4,0 NW 2,0 1013,8 89 0,20 123
15:39 20,0 18,1 2,0 NW 1,0 1013,8 89 0,20 118
15:44 19,9 18,3 4,0 NW 2,0 1013,8 90 0,20 113
15:49 20,1 18,4 6,0 NW 3,0 1013,7 90 0,20 107
15:54 20,1 18,5 3,0 NW 1,0 1013,7 91 0,20 111
15:59 20,1 18,8 4,0 NW 2,0 1013,6 92 0,20 116
16:04 20,1 18,6 3,0 NW 2,0 1013,4 91 0,20 132
16:09 20,2 18,6 4,0 NW 2,0 1013,3 91 0,20 156
16:14 20,4 18,9 6,0 NW 4,0 1013,2 91 - 172
16:19 20,4 18,9 6,0 NW 4,0 1013,2 91 - 192
16:24 20,6 18,9 7,0 NW 4,0 1013,1 90 - 209
16:29 20,7 18,8 7,0 NW 5,0 1013,1 90 - 232
16:34 20,8 18,9 6,0 NW 3,0 1013,1 89 - 348
16:39 20,9 19,2 4,0 NW 3,0 1013,1 90 - 380
Tägliche Zusammenfassung für Freitag 14 August 2020
Zeit Temp. ( °C ) Dew pt. ( °C ) Wind ( km/h ) von Windböen ( km/h ) Luftdruck ( hPa ) Humid.( % ) Rainrate ( cm ) Solar ( W/m2 )
Hoch21,1 19,2 19,0 SW ( 501/1099 ) 12,0 1014,6 96 1,19 380
Durchchnittswerte19,3 18,1 5,5 SW #86/200 3,4 1013,5 93 0,80 144 #117/200
Wenig18,1 16,9 -   0,0 1012,6 84 -  
Tägliche Tabular details for Freitag 14 August 2020
Zeit Temp. ( °C ) Dew pt. ( °C ) Wind ( km/h ) von Windböen ( km/h ) Luftdruck ( hPa ) Humid.( % ) Rainrate ( cm ) Solar ( W/m2 )
00:04 18,7 17,4 6,0 SW 4,0 1013,8 92 - -
00:09 18,7 17,4 7,0 SW 4,0 1013,8 92 - -
00:14 18,7 17,5 6,0 SW 4,0 1013,8 93 - -
00:19 18,6 17,4 7,0 SW 5,0 1013,9 93 - -
00:24 18,4 17,3 7,0 SW 5,0 1013,9 93 - -
00:29 18,5 17,2 7,0 SW 6,0 1013,8 92 0,20 -
00:34 18,6 17,2 7,0 SW 5,0 1013,8 92 0,20 -
00:39 18,7 17,2 8,0 SW 5,0 1013,7 91 0,20 -
00:44 18,7 17,2 8,0 SW 6,0 1013,8 91 0,20 -
00:49 18,6 17,1 8,0 SW 7,0 1013,8 91 0,20 -
00:54 18,5 17,0 8,0 SW 7,0 1013,7 91 0,20 -
00:59 18,4 16,9 8,0 SW 4,0 1013,7 91 0,20 -
01:04 18,4 17,1 6,0 SW 4,0 1013,7 92 0,20 -
01:09 18,4 17,1 7,0 SW 4,0 1013,7 92 0,20 -
01:14 18,4 17,1 7,0 SW 4,0 1013,6 92 0,20 -
01:19 18,4 17,1 6,0 SW 4,0 1013,6 92 0,20 -
01:24 18,3 17,2 6,0 SW 3,0 1013,6 93 0,20 -
01:29 18,3 17,1 6,0 SW 3,0 1013,6 93 0,20 -
01:34 18,4 17,2 7,0 SW 4,0 1013,5 93 0,20 -
01:39 18,4 17,2 4,0 SW 3,0 1013,5 93 0,20 -
01:44 18,4 17,4 4,0 SW 3,0 1013,5 94 0,20 -
01:49 18,5 17,5 6,0 SW 3,0 1013,5 94 0,20 -
01:54 18,6 17,6 5,0 SW 3,0 1013,4 94 0,20 -
01:59 18,5 17,5 6,0 SW 3,0 1013,4 94 0,41 -
02:04 18,6 17,6 6,0 SW 3,0 1013,3 94 0,41 -
02:09 18,7 17,7 7,0 SW 5,0 1013,3 94 0,41 -
02:14 18,9 17,9 12,0 SSW 5,0 1013,3 94 0,61 -
02:19 19,2 18,1 13,0 SW 7,0 1013,2 94 0,61 -
02:24 19,3 18,1 13,0 SW 8,0 1013,1 93 0,79 -
02:29 19,4 18,1 13,0 SW 9,0 1013,1 93 0,99 -
02:34 19,4 18,1 12,0 SW 7,0 1013,1 92 0,99 -
02:39 19,4 18,2 9,0 SW 6,0 1013,0 93 0,99 -
02:44 19,3 18,2 10,0 SW 6,0 1013,0 93 0,99 -
02:49 19,3 18,1 8,0 SW 6,0 1013,0 93 0,99 -
02:54 19,3 18,2 10,0 SSW 6,0 1012,9 93 1,19 -
02:59 19,3 18,2 7,0 SW 5,0 1013,0 93 1,19 -
03:04 19,3 18,2 7,0 SSW 5,0 1013,0 93 0,99 -
03:09 19,2 18,1 8,0 SSW 4,0 1013,0 94 0,99 -
03:14 19,1 18,1 7,0 SSW 4,0 1013,0 94 0,99 -
03:19 19,2 18,1 8,0 SSW 5,0 1012,9 94 0,99 -
03:24 19,3 18,1 10,0 SW 6,0 1012,9 93 0,79 -
03:29 19,3 18,2 10,0 SSW 6,0 1012,8 93 0,79 -
03:34 19,3 18,0 7,0 SW 5,0 1012,8 92 0,61 -
03:39 19,3 18,1 12,0 SW 7,0 1012,8 93 0,61 -
03:44 19,2 18,0 7,0 SW 4,0 1012,7 93 0,41 -
03:49 19,1 18,1 8,0 SW 4,0 1012,7 94 0,41 -
03:54 19,0 18,0 4,0 SW 1,0 1012,7 94 0,41 -
03:59 18,9 17,9 4,0 SW 2,0 1012,7 94 0,20 -
04:04 18,8 17,9 2,0 SW 1,0 1012,6 95 0,20 -
04:09 18,7 17,9 2,0 SW   1012,7 95 0,20 -
04:14 18,7 17,8 2,0 SW   1012,7 95 0,20 -
04:19 18,6 17,8 2,0 SW   1012,7 95 0,20 -
04:24 18,6 17,8   Windstille   1012,7 95 - -
04:29 18,6 17,8   Windstille   1012,7 95 - -
04:34 18,6 17,7 4,0 SW 1,0 1012,7 95 - -
04:39 18,6 17,8 4,0 SW 1,0 1012,7 96 - -
04:44 18,5 17,8 2,0 SW 1,0 1012,7 96 - -
04:49 18,5 17,8 4,0 SW 2,0 1012,7 96 - -
04:54 18,5 17,8 2,0 SW 2,0 1012,7 96 - -
04:59 18,5 17,8 2,0 SW 1,0 1012,6 96 - -
05:04 18,4 17,8   Windstille   1012,6 96 - -
05:09 18,4 17,7 2,0 SW 1,0 1012,6 96 - -
05:14 18,4 17,7 2,0 SW   1012,7 96 - -
05:19 18,3 17,7   Windstille   1012,7 96 - -
05:24 18,3 17,7   Windstille   1012,7 96 - -
05:29 18,3 17,7 2,0 SW 1,0 1012,8 96 - -
05:34 18,3 17,6 4,0 SW 3,0 1012,8 96 - -
05:39 18,2 17,6 4,0 SW 3,0 1012,8 96 - -
05:44 18,2 17,5 2,0 SW 1,0 1012,8 96 - -
05:49 18,1 17,4   Windstille   1012,8 96 - -
05:54 18,1 17,4   Windstille   1012,8 96 0,20 -
05:59 18,1 17,4   Windstille   1012,9 96 0,20 -
06:04 18,2 17,5   Windstille   1012,8 96 0,20 -
06:09 18,2 17,5   Windstille   1012,9 96 0,20 -
06:14 18,1 17,4   Windstille   1012,9 96 0,20 -
06:19 18,2 17,5 2,0 SW 1,0 1012,8 96 0,20 -
06:24 18,2 17,5 4,0 SW 2,0 1012,9 96 0,20 -
06:29 18,2 17,6 4,0 SW 1,0 1012,9 96 0,20 -
06:34 18,2 17,5 2,0 SW 1,0 1013,0 96 0,20 -
06:39 18,2 17,6 4,0 SW 2,0 1013,0 96 0,20 -
06:44 18,2 17,6 4,0 SW 2,0 1013,1 96 0,20 -
06:49 18,3 17,6   Windstille   1013,1 96 0,20 -
06:54 18,3 17,6   Windstille   1013,1 96 0,20 -
06:59 18,2 17,6   Windstille   1013,1 96 - 5
07:04 18,2 17,6   Windstille   1013,1 96 - 7
07:09 18,3 17,6   Windstille   1013,1 96 - 9
07:14 18,3 17,7   Windstille   1013,1 96 - 14
07:19 18,3 17,7   Windstille   1013,2 96 - 16
07:24 18,3 17,7 2,0 SW   1013,2 96 - 18
07:29 18,4 17,7   Windstille   1013,2 96 - 19
07:34 18,4 17,7 2,0 SW 1,0 1013,3 96 - 19
07:39 18,4 17,8 4,0 SW 2,0 1013,3 96 - 23
07:44 18,5 17,8 2,0 SW 1,0 1013,3 96 - 26
07:49 18,5 17,8   Windstille   1013,4 96 - 32
07:54 18,6 17,9 2,0 SW 1,0 1013,4 96 - 35
07:59 18,6 17,9 2,0 SW 1,0 1013,5 96 - 33
08:04 18,7 18,0 2,0 SW   1013,5 96 - 32
08:09 18,7 18,1   Windstille   1013,6 96 - 33
08:14 18,8 18,1   Windstille   1013,5 96 - 40
08:19 18,7 18,1   Windstille   1013,6 96 - 51
08:24 18,9 18,2   Windstille   1013,6 96 - 63
08:29 18,9 18,3   Windstille   1013,6 96 - 74
08:34 18,9 18,2   Windstille   1013,6 96 - 77
08:39 19,0 18,3   Windstille   1013,6 96 - 79
08:44 19,1 18,4   Windstille   1013,7 96 - 76
08:49 19,2 18,5   Windstille   1013,7 96 - 70
08:54 19,2 18,5   Windstille   1013,7 96 - 63
08:59 19,2 18,5 4,0 SW 2,0 1013,8 96 - 62
09:04 19,3 18,5 4,0 SW 3,0 1013,8 95 - 65
09:09 19,4 18,6 4,0 SW 2,0 1013,9 95 - 63
09:14 19,4 18,4 4,0 SW 3,0 1013,9 94 - 53
09:19 19,4 18,6 2,0 SW 1,0 1013,9 95 - 47
09:24 19,4 18,6 4,0 SW 2,0 1013,9 95 - 53
09:29 19,3 18,4 4,0 SW 2,0 1013,9 95 - 63
09:34 19,2 18,4 4,0 SW 3,0 1013,9 96 - 67
09:39 19,2 18,6 4,0 SW 2,0 1013,9 96 - 69
09:44 19,2 18,5 7,0 SO 5,0 1013,9 96 - 67
09:49 19,2 18,3 6,0 OSO 4,0 1013,8 95 - 65
09:54 19,2 18,4 4,0 OSO 3,0 1013,8 95 - 67
09:59 19,2 18,3 3,0 OSO 2,0 1013,8 95 - 67
10:04 19,2 18,4 4,0 OSO 2,0 1013,8 95 - 67
10:09 19,3 18,4 4,0 OSO 2,0 1013,7 95 - 70
10:14 19,3 18,4 4,0 OSO 2,0 1013,8 95 - 70
10:19 19,4 18,6 6,0 OSO 4,0 1013,8 95 - 76
10:24 19,4 18,6 7,0 SSO 5,0 1013,8 95 - 86
10:29 19,5 18,7 7,0 Süden 5,0 1013,8 95 - 97
10:34 19,7 18,7 7,0 Süden 5,0 1013,8 94 - 109
10:39 19,8 18,5 8,0 SSW 7,0 1013,8 93 - 120
10:44 19,8 18,3 10,0 SSW 6,0 1013,7 91 - 149
10:49 19,9 18,3 9,0 SSW 7,0 1013,7 91 - 197
10:54 20,2 18,6 7,0 SSW 4,0 1013,7 91 - 225
10:59 20,2 18,6 8,0 Süden 6,0 1013,7 90 - 248
11:04 20,2 18,7 12,0 Süden 7,0 1013,7 91 - 264
11:09 20,4 19,1 8,0 SSW 6,0 1013,7 92 - 265
11:14 20,6 19,1 8,0 SSW 7,0 1013,8 92 - 262
11:19 20,7 18,9 13,0 Süden 8,0 1013,8 90 - 267
11:24 20,8 18,9 13,0 Süden 9,0 1013,8 89 - 301
11:29 20,8 18,8 19,0 SW 12,0 1013,7 88 - 338
11:34 20,8 18,6 15,0 SSW 9,0 1013,8 87 - 346
11:39 20,8 18,6 13,0 SW 9,0 1013,8 87 - 345
11:44 20,9 18,9 13,0 SSW 6,0 1013,9 88 - 345
11:49 20,9 18,9 13,0 SSW 8,0 1014,0 88 - 338
11:54 20,9 18,4 13,0 SSW 9,0 1014,0 86 - 301
11:59 20,8 18,3 12,0 SW 7,0 1014,0 86 - 265
12:04 20,8 18,3 12,0 Süden 8,0 1014,0 86 - 253
12:09 20,8 18,3 12,0 Süden 8,0 1014,0 86 - 236
12:14 20,6 18,4 8,0 SSW 6,0 1014,0 87 - 218
12:19 20,6 18,3 8,0 Süden 5,0 1014,1 87 - 193
12:24 20,6 18,2 10,0 SW 7,0 1014,1 86 - 172
12:29 20,6 18,3 10,0 SSW 7,0 1014,1 87 - 181
12:34 20,6 18,2 8,0 SSW 5,0 1014,1 86 - 195
12:39 20,7 18,4 7,0 Süden 5,0 1014,2 87 - 216
12:44 20,7 18,2 13,0 SW 8,0 1014,2 86 - 234
12:49 20,7 18,1 10,0 Süden 5,0 1014,3 86 - 258
12:54 20,9 18,4 6,0 NNO 2,0 1014,3 86 - 274
12:59 21,1 18,7 8,0 Norden 5,0 1014,4 86 - 274
13:04 21,0 18,1 8,0 SW 6,0 1014,3 84 - 246
13:09 20,9 18,1 8,0 WSW 6,0 1014,4 84 - 216
13:14 20,8 18,2 7,0 SW 4,0 1014,5 85 - 190
13:19 20,8 18,1 8,0 Westen 5,0 1014,6 85 - 162
13:24 20,7 18,1 10,0 NNW 6,0 1014,6 85 - 141
13:29 20,7 18,2 9,0 NW 6,0 1014,5 86 - 127
13:34 20,6 18,3 8,0 WNW 5,0 1014,5 87 - 130
13:39 20,6 18,3 2,0 WNW 1,0 1014,5 87 - 146
13:44 20,4 18,4 8,0 NW 6,0 1014,4 88 - 165
13:49 20,3 18,3 7,0 NNW 5,0 1014,4 88 - 178
13:54 20,3 18,1 7,0 WNW 5,0 1014,4 88 - 178
13:59 20,2 18,3 10,0 NNW 7,0 1014,3 89 - 179
14:04 19,9 18,4 6,0 Norden 4,0 1014,3 91 0,20 188
14:09 19,9 18,4 3,0 Norden 1,0 1014,2 91 0,20 188
14:14 19,9 18,6 8,0 NNO 6,0 1014,3 92 0,20 186
14:19 19,9 18,6 7,0 NW 4,0 1014,2 92 0,41 178
14:24 19,9 18,6 7,0 NNW 3,0 1014,1 92 0,41 163
14:29 19,9 18,6 6,0 WNW 2,0 1014,1 92 0,41 160
14:34 19,9 18,6 7,0 NW 4,0 1014,1 92 0,41 155
14:39 19,9 18,6 6,0 NW 3,0 1014,0 92 0,41 142
14:44 19,9 18,7 4,0 NW 3,0 1014,0 93 0,41 142
14:49 20,0 18,8 4,0 NW 2,0 1014,0 93 0,41 137
14:54 19,9 18,6 2,0 NW 1,0 1014,0 92 0,41 128
14:59 19,9 18,6 3,0 NW 2,0 1013,9 92 0,41 120
15:04 19,9 18,4 6,0 NW 4,0 1013,9 91 0,41 123
15:09 19,9 18,4 6,0 NW 4,0 1013,9 91 0,41 134
15:14 19,9 18,4 4,0 NW 2,0 1013,9 91 0,41 135
15:19 20,1 18,7 4,0 NW 3,0 1013,8 92 0,20 135
15:24 20,1 18,7 6,0 NW 3,0 1013,8 92 0,20 128
15:29 20,1 18,4 6,0 NW 2,0 1013,8 90 0,20 125
15:34 20,0 18,1 4,0 NW 2,0 1013,8 89 0,20 123
15:39 20,0 18,1 2,0 NW 1,0 1013,8 89 0,20 118
15:44 19,9 18,3 4,0 NW 2,0 1013,8 90 0,20 113
15:49 20,1 18,4 6,0 NW 3,0 1013,7 90 0,20 107
15:54 20,1 18,5 3,0 NW 1,0 1013,7 91 0,20 111
15:59 20,1 18,8 4,0 NW 2,0 1013,6 92 0,20 116
16:04 20,1 18,6 3,0 NW 2,0 1013,4 91 0,20 132
16:09 20,2 18,6 4,0 NW 2,0 1013,3 91 0,20 156
16:14 20,4 18,9 6,0 NW 4,0 1013,2 91 - 172
16:19 20,4 18,9 6,0 NW 4,0 1013,2 91 - 192
16:24 20,6 18,9 7,0 NW 4,0 1013,1 90 - 209
16:29 20,7 18,8 7,0 NW 5,0 1013,1 90 - 232
16:34 20,8 18,9 6,0 NW 3,0 1013,1 89 - 348
16:39 20,9 19,2 4,0 NW 3,0 1013,1 90 - 380

Download your copy of this data-set  here

Our weather-data as stored at Weather Underground. Script entwickelt von Jim McMurry. Angepasst für das Template von Leuven-Template.eu

Sie finden unser Wetter-Infos auch auf:

netzwerkwettercom

European Weather Network

WeatherCloud

Weather Underground

AWEKAS

HAMweather, WeatherForYou, PWS Weather

Von uns verwendete Ausrüstung:

Wetterstation
Davis VP2

Davis VP2